Location: Chmeli�t?
(49.8978°N, 15.0526°E)
Time: 22:50:16
(UTC+00:00)

BREEZE-M R/B - Pass Details

Date: 07 June 2020
Orbit: 311 x 4533 km, 49.7° (Epoch: 11 July)

Event Time Altitude Azimuth Distance (km) Brightness Sun altitude
Rises 00:29:27 0° 268° (W) 4,139 7.0 -14.6°
Reaches altitude 10° 00:33:09 10° 269° (W) 2,573 6.0 -14.4°
Maximum altitude 00:38:32 89° 171° (S) 534 2.7 -14.0°
Drops below altitude 10° 00:41:30 10° 91° (E) 1,437 5.3 -13.8°
Sets 00:43:04 0° 91° (E) 2,153 6.2 -13.7°
